STARLINK-5659, 55351

Orbit data source: Space-Track

STARLINK-5659, 55351 is a payload satellite owned by SpaceX/Seattle (US) in LEO that was launched on Thu, 26 Jan 2023 UTC via an FALCON 9 launch vehicle from the Air Force Eastern Test Range (AFETR). Payload-class satellites include a variety of spacecraft equipped with specific instruments for various scientific and technological missions. These include communications satellites like Starlink; space stations such as the ISS; scientific satellites like the Hubble; Earth observation satellites from companies like Planet Labs, Umbra, and HawkEye 360; GPS; miniature CubeSats for education and research; and military/defense satellites.

Loading next visibility...
Identifier
55351, 2023-013W
Orbit
LEO
Country
Flag of USUS
Related business
Manufacturer
SpaceX/Seattle
Mission
Operational Commercial Communications
Bus & Motor
STARLINK, Unknown motor
Mass
305 kg wet, ~290 kg dry
Launch date (UTC)
2023-01-26 (3 years ago)
Launch vehicle
FALCON 9
Launch site
Air Force Eastern Test Range (AFETR)
Object type
Payload
Rocket body
Debris
Shape & HBR
Box + 1 Pan, 10.1 m
Radar Cross Section
13.562 m², Large (>1 m²)

Expand to show TLE details & history
Last TLE update: 21 hours ago

TLE from 21 hours ago
0 STARLINK-5659
1 55351U 23013W   25349.53940684  .00001739  00000-0  14376-3 0  9994
2 55351  43.0041  37.3516 0001131 257.5800 102.4915 15.02542209159053
Epoch: 2025-12-15T12:56Z
TLE epoch observation values (Epoch: 2025-12-15T12:56:44.750Z)
Latitude
-0.0001°
Longitude
118.72852°
Altitude
559.009 km
Speed
7.584 km/s
True Right ascension
02h 29m 24s
True Declination
0° 00' 00"
Sunlit
Object was in full shadow at epoch
Visualization orbit readout
Latitude
Unknown
Longitude
Unknown
Altitude
Unknown
Speed
Unknown
Apparent Right ascension
Unknown
Apparent Declination
Unknown
Sunlit
N/A
Visualization observer readout
Local Sidereal Time
08:22:02
Azimuth
Unknown
Elevation
Unknown
Doppler factor
Unknown
Orbital elements
Apogee altitude
561.769 km
Perigee altitude
560.199 km
Semi-major axis
6,939.121 km
Eccentricity
0.00011
Inclination
43.0041°
RAAN
37.3516°
Arg. of periapsis
257.58°
True anomaly
102.50415°
Mean anomaly
102.4915°
Eccentric anomaly
102.49783°
Mean motion
3.7548 °/min
Orbital period
95.88 mins
BSTAR
0.00014376
Loading maneuver chart data...
Computing Atmospheric mass density...
Loading historical data...
Loading historical data...
Loading historical data...
Loading historical data...
Loading historical data...
Loading historical data...
Loading historical data...

Documentation

Showing up to 5 results
|